Flag for Australia Weather past 2 weeks in Sydney, New South Wales, Australia

Now
66 °F

Passing clouds.


Feels Like: 66 °F
Forecast: 62 / 74 °F
Wind: 8 mph from Northeast

Location: Sydney Airport


UV Index: 3 (Moderate)

Visibility: N/A


Pressure: 30.09 "Hg

Humidity: 68%

Dew point: 55 °F

Location of SydneyLocation

Historic Weather in Sydney

°F

Sydney temperature yesterday

Maximum temperature yesterday: 86 °F (at 3:00 PM)
Minimum temperature yesterday: 59 °F (at 2:30 AM)
Average temperature yesterday: 70 °F

Past Weeks' High & Low Weather Summary

 TemperatureHumidityPressure
High86 °F (Apr 24, 3:00 PM)100% (Apr 11, 1:30 AM)30.21 "Hg (Apr 11, 1:30 AM)
Low55 °F (Apr 17, 4:00 AM)19% (Apr 24, 3:30 PM)29.59 "Hg (Apr 11, 2:00 PM)
Average66 °F66%29.99 "Hg
* Reported Apr 10 4:00 PM — Apr 25 4:30 PM, Sydney, Weather by CustomWeather, © 2014

Note: Actual official high and low records may vary slightly from our data, if they occured in-between our weather recording intervals... More about our weather records

Advertising

Historic Weather Conditions — Data for Previous 24 hours

 ConditionsComfort  
Time TempWeatherWind HumidityBarometerVisibility
4:30 PM
Apr 25
70 °FPassing clouds.10 mph57%30.09 "HgN/A
4:00 PM70 °FPassing clouds.13 mph57%30.09 "HgN/A
3:30 PM72 °FPassing clouds.13 mph57%30.09 "HgN/A
3:00 PM70 °FPassing clouds.14 mph64%30.09 "HgN/A
2:30 PM68 °FScattered clouds.12 mph78%30.09 "HgN/A
2:00 PM68 °FScattered showers. Scattered clouds.8 mph78%30.09 "HgN/A
1:30 PM64 °FMixture of precip. Partly sunny.18 mph88%30.12 "HgN/A
1:00 PM68 °FScattered showers. Partly sunny.8 mph83%30.12 "HgN/A
12:30 PM68 °FRain showers. Partly sunny.8 mph78%30.15 "HgN/A
12:00 PM68 °FSprinkles. Partly sunny.15 mph73%30.15 "HgN/A
11:30 AM68 °FSprinkles. Partly sunny.13 mph73%30.15 "HgN/A
11:00 AM68 °FSprinkles. Partly sunny.12 mph73%30.18 "HgN/A
10:30 AM66 °FScattered showers. Broken clouds.10 mph78%30.18 "HgN/A
10:00 AM64 °FSprinkles. Partly sunny.12 mph83%30.18 "Hg5 mi
9:00 AM66 °FSprinkles. Partly sunny.12 mph83%30.21 "HgN/A
8:30 AM68 °FSprinkles. Partly sunny.15 mph69%30.18 "HgN/A
8:00 AM68 °FScattered showers. Partly sunny.13 mph64%30.18 "HgN/A
7:30 AM68 °FSprinkles. Partly sunny.18 mph64%30.15 "HgN/A
7:00 AM68 °FScattered showers. Partly sunny.16 mph64%30.12 "HgN/A
6:30 AM68 °FScattered showers. Broken clouds.15 mph69%30.12 "HgN/A
6:00 AM68 °FScattered showers. Broken clouds.17 mph64%30.12 "HgN/A
5:30 AM68 °FPartly sunny.16 mph64%30.12 "HgN/A
5:00 AM68 °FPassing clouds.17 mph64%30.09 "HgN/A
4:30 AM68 °FPassing clouds.18 mph64%30.09 "HgN/A
4:00 AM68 °FPassing clouds.20 mph64%30.09 "HgN/A
3:30 AM68 °FPassing clouds.18 mph69%30.09 "HgN/A
3:00 AM68 °FPassing clouds.17 mph69%30.09 "HgN/A
2:30 AM68 °FPassing clouds.18 mph69%30.09 "HgN/A
2:00 AM68 °FPassing clouds.21 mph73%30.09 "HgN/A
1:30 AM68 °FPassing clouds.21 mph69%30.09 "HgN/A
1:00 AM70 °FPassing clouds.20 mph69%30.09 "HgN/A
12:30 AM70 °FPassing clouds.21 mph69%30.09 "HgN/A
12:00 AM70 °FPassing clouds.21 mph69%30.07 "HgN/A
11:30 PM
Apr 24
70 °FPassing clouds.21 mph73%30.07 "HgN/A
11:00 PM70 °FPassing clouds.22 mph73%30.07 "HgN/A
10:30 PM70 °FPassing clouds.20 mph73%30.07 "HgN/A
10:00 PM72 °FPassing clouds.22 mph69%30.04 "HgN/A
9:53 PM72 °FClear.23 mph65%30.04 "Hg10 mi
9:30 PM70 °FClear.15 mph64%30.04 "Hg10 mi
9:00 PM72 °FClear.13 mph61%30.01 "Hg10 mi
8:30 PM68 °FClear.6 mph83%29.98 "Hg10 mi
8:00 PM68 °FClear.7 mph83%29.98 "Hg10 mi
7:30 PM68 °FClear.8 mph88%29.98 "Hg10 mi
7:00 PM68 °FClear.8 mph88%29.95 "Hg10 mi
6:30 PM70 °FClear.6 mph83%29.95 "Hg10 mi
6:00 PM73 °FClear.6 mph57%29.92 "Hg10 mi
Weather by CustomWeather, © 2014

See weather overview